DW7955 Weather Reports


time (UTC)temp
F
wind
direction
speed
knots
gust
knots
rain 1hr
in
rain 24hr
in
rain mn
in
humidity
%
barometer
mb
20240614123012 64 264 0.0 1.7 0.00 0.00 0.00 76 1005.6
20240614121509 64 285 0.0 3.5 0.00 0.00 0.00 76 1005.7
20240614120002 64 323 2.6 5.2 0.00 0.00 0.00 77 1005.6
20240614114502 64 340 3.5 8.7 0.00 0.00 0.00 77 1005.1
20240614113114 64 1 4.3 7.8 0.00 0.00 0.00 77 1005.3
20240614111559 65 346 5.2 10.4 0.00 0.00 0.00 76 1005.3
20240614110103 65 10 7.0 12.2 0.00 0.00 0.00 75 1005.4
20240614104556 65 14 7.0 10.4 0.00 0.00 0.00 74 1004.8
20240614103054 65 7 7.0 13.0 0.00 0.00 0.00 71 1005.0
20240614101601 66 6 7.0 11.3 0.00 0.00 0.00 68 1005.1
20240614100054 67 14 7.0 11.3 0.00 0.00 0.00 63 1005.4
20240614094553 67 14 6.1 10.4 0.00 0.00 0.00 61 1005.4
20240614093054 67 7 7.0 11.3 0.00 0.00 0.00 58 1005.6
20240614091546 67 13 7.0 11.3 0.00 0.00 0.00 58 1005.8
20240614090041 67 18 7.8 12.2 0.00 0.00 0.00 54 1005.7
20240614084533 68 18 6.1 10.4 0.00 0.00 0.00 50 1005.8
20240614083032 69 1 6.1 10.4 0.00 0.00 0.00 49 1005.8
20240614081526 69 22 4.3 7.8 0.00 0.00 0.00 47 1006.0
20240614080024 70 33 4.3 7.8 0.00 0.00 0.00 46 1006.2
20240614074521 71 36 5.2 7.8 0.00 0.00 0.00 44 1006.3
20240614073025 71 46 7.0 8.7 0.00 0.00 0.00 45 1006.1
20240614071514 72 22 2.6 6.1 0.00 0.00 0.00 43 1006.3
20240614070012 73 50 0.9 4.3 0.00 0.00 0.00 40 1006.4
20240614064525 74 63 6.1 10.4 0.00 0.00 0.00 38 1006.5
20240614063010 75 35 7.8 12.2 0.00 0.00 0.00 37 1006.7
20240614061514 74 25 1.7 4.3 0.00 0.00 0.00 39 1006.9
20240614060003 74 63 0.0 1.7 0.00 0.00 0.00 37 1007.0
20240614054507 75 33 0.0 3.5 0.00 0.00 0.00 37 1007.1
20240614053002 76 20 0.9 4.3 0.00 0.00 0.00 36 1007.0
20240614051603 76 51 1.7 5.2 0.00 0.00 0.00 35 1006.7
20240614050058 76 42 4.3 7.0 0.00 0.00 0.00 35 1006.6
20240614044556 77 59 3.5 6.1 0.00 0.00 0.00 34 1006.5
20240614043056 79 46 5.2 8.7 0.00 0.00 0.00 33 1006.4
20240614041604 79 60 8.7 13.0 0.00 0.00 0.00 33 1006.3
20240614040054 80 56 7.0 13.9 0.00 0.00 0.00 32 1006.3
20240614034629 81 60 10.4 14.8 0.00 0.00 0.00 31 1005.8
20240614033055 81 67 9.6 22.6 0.00 0.00 0.00 31 1005.1
20240614031559 82 64 11.3 18.2 0.00 0.00 0.00 29 1004.6
20240614030047 84 124 11.3 22.6 0.00 0.00 0.00 27 1004.9
20240614024546 86 71 9.6 20.0 0.00 0.00 0.00 22 1003.9
20240614023047 87 76 15.6 26.1 0.00 0.00 0.00 21 1002.5
20240614021547 88 81 11.3 26.1 0.00 0.00 0.00 20 1002.1
20240614020045 89 49 13.0 24.3 0.00 0.00 0.00 17 1001.8
20240614014547 90 55 13.0 19.1 0.00 0.00 0.00 16 1001.6
20240614013106 92 56 17.4 22.6 0.00 0.00 0.00 16 1001.2
20240614011546 95 35 4.3 13.0 0.00 0.00 0.00 11 1000.8
20240614010042 97 29 1.7 4.3 0.00 0.00 0.00 12 1000.5
20240614004543 97 111 2.6 6.1 0.00 0.00 0.00 10 1000.3
20240614003043 97 67 4.3 7.8 0.00 0.00 0.00 10 1000.1
20240614001540 98 131 2.6 6.1 0.00 0.00 0.00 10 1000.1
20240614000041 98 126 3.5 8.7 0.00 0.00 0.00 9 1000.0
20240613234539 98 88 4.3 13.0 0.00 0.00 0.00 10 1000.2
20240613233048 98 133 4.3 8.7 0.00 0.00 0.00 10 1000.3
20240613231538 98 148 6.1 11.3 0.00 0.00 0.00 10 1000.5
20240613230035 98 135 3.5 7.8 0.00 0.00 0.00 10 1000.7
20240613224533 98 122 3.5 10.4 0.00 0.00 0.00 10 1000.7
20240613223032 98 142 3.5 7.8 0.00 0.00 0.00 9 1000.9
20240613221530 98 221 5.2 11.3 0.00 0.00 0.00 9 1001.2
20240613220048 99 192 3.5 11.3 0.00 0.00 0.00 9 1001.4
20240613214526 98 165 7.0 11.3 0.00 0.00 0.00 11 1001.6
20240613213025 100 174 8.7 14.8 0.00 0.00 0.00 10 1001.8
20240613211532 100 227 4.3 13.0 0.00 0.00 0.00 8 1001.8
20240613210022 99 282 7.0 13.9 0.00 0.00 0.00 8 1001.8
20240613204526 100 214 5.2 12.2 0.00 0.00 0.00 9 1002.0
20240613203019 99 316 5.2 18.2 0.00 0.00 0.00 9 1002.2
20240613201516 98 305 7.8 19.1 0.00 0.00 0.00 9 1002.4
20240613200018 99 351 3.5 10.4 0.00 0.00 0.00 7 1002.6
20240613194512 98 1 4.3 14.8 0.00 0.00 0.00 9 1002.7
20240613193016 98 301 7.0 14.8 0.00 0.00 0.00 8 1003.0
20240613191518 98 307 7.0 12.2 0.00 0.00 0.00 9 1003.1
20240613190009 97 302 8.7 13.9 0.00 0.00 0.00 9 1003.3
20240613184509 97 315 2.6 9.6 0.00 0.00 0.00 9 1003.5
20240613183002 96 298 6.1 13.9 0.00 0.00 0.00 9 1003.8
20240613181501 96 287 2.6 9.6 0.00 0.00 0.00 12 1003.9
20240613180059 96 242 4.3 9.6 0.00 0.00 0.00 11 1004.0
20240613174558 95 253 5.2 11.3 0.00 0.00 0.00 12 1004.0
20240613173055 95 241 1.7 8.7 0.00 0.00 0.00 13 1004.0
20240613171552 94 261 1.7 12.2 0.00 0.00 0.00 13 1004.0
20240613170050 93 275 3.5 9.6 0.00 0.00 0.00 15 1004.1
20240613164545 92 273 5.2 10.4 0.00 0.00 0.00 17 1004.2
20240613163053 91 251 3.5 7.8 0.00 0.00 0.00 17 1004.4
20240613161546 89 275 4.3 11.3 0.00 0.00 0.00 18 1004.5
20240613160044 88 206 2.6 9.6 0.00 0.00 0.00 21 1004.5
20240613154532 86 261 3.5 10.4 0.00 0.00 0.00 23 1004.6
20240613153030 85 281 4.3 9.6 0.00 0.00 0.00 26 1004.8
20240613151542 83 316 1.7 10.4 0.00 0.00 0.00 28 1004.9
20240613150027 81 346 4.3 8.7 0.00 0.00 0.00 29 1005.0
20240613144522 79 286 3.5 9.6 0.00 0.00 0.00 32 1005.0
20240613143012 77 287 3.5 7.8 0.00 0.00 0.00 34 1004.9
20240613141507 75 306 2.6 7.8 0.00 0.00 0.00 37 1004.9
20240613140003 73 233 3.5 11.3 0.00 0.00 0.00 39 1005.0
20240613134600 71 293 1.7 5.2 0.00 0.00 0.00 43 1005.0
20240613133056 69 327 1.7 6.1 0.00 0.00 0.00 45 1005.0
20240613131601 66 322 1.7 4.3 0.00 0.00 0.00 50 1005.1
20240613130054 64 294 2.6 5.2 0.00 0.00 0.00 52 1005.0
20240613124553 63 315 2.6 5.2 0.00 0.00 0.00 53 1004.9